Time,TemperatureF,DewpointF,PressureIn,WindDirection,WindDirectionDegrees,WindSpeedMPH,WindSpeedGustMPH,Humidity,HourlyPrecipIn,Conditions,Clouds,dailyrainin,SolarRadiationWatts/m^2,SoftwareType,DateUTC
2013-02-12 00:01:00,1.0,-3.0,-100.00,SSE,162,0.0,0.0,84,0.00,,,0.00,0.000000,,2013-02-12 07:01:00,
2013-02-12 00:32:00,-3.0,-7.0,-100.00,SSE,151,0.0,0.0,81,0.00,,,0.00,0.000000,,2013-02-12 07:32:00,
2013-02-12 00:42:00,-3.0,-7.0,-100.00,SSE,151,0.0,0.0,81,0.00,,,0.00,0.000000,,2013-02-12 07:42:00,
2013-02-12 00:52:00,-3.0,-7.0,-100.00,SSE,151,0.0,0.0,81,0.00,,,0.00,0.000000,,2013-02-12 07:52:00,
2013-02-12 01:01:00,-3.0,-7.0,-100.00,SSE,151,0.0,0.0,81,0.00,,,0.00,0.000000,,2013-02-12 08:01:00,
2013-02-12 01:32:00,-5.0,-10.0,-100.00,NNW,335,0.0,0.0,79,-99.99,,,0.00,0.000000,,2013-02-12 08:32:00,
2013-02-12 01:42:00,-5.0,-10.0,-100.00,NNW,335,0.0,0.0,79,-99.99,,,0.00,0.000000,,2013-02-12 08:42:00,
2013-02-12 01:52:00,-5.0,-10.0,-100.00,NNW,335,0.0,0.0,79,-99.99,,,0.00,0.000000,,2013-02-12 08:52:00,
2013-02-12 02:01:00,-5.0,-10.0,-100.00,NNW,335,0.0,0.0,79,-99.99,,,0.00,0.000000,,2013-02-12 09:01:00,
2013-02-12 02:32:00,-6.0,-11.0,-100.00,South,181,0.0,0.0,79,-99.99,,,0.00,0.000000,,2013-02-12 09:32:00,
2013-02-12 02:42:00,-6.0,-11.0,-100.00,South,181,0.0,0.0,79,-99.99,,,0.00,0.000000,,2013-02-12 09:42:00,
2013-02-12 02:52:00,-6.0,-11.0,-100.00,South,181,0.0,0.0,79,-99.99,,,0.00,0.000000,,2013-02-12 09:52:00,
2013-02-12 03:01:00,-6.0,-11.0,-100.00,South,181,0.0,0.0,79,-99.99,,,0.00,0.000000,,2013-02-12 10:01:00,
2013-02-12 03:22:00,-7.0,-12.0,-100.00,WSW,242,0.0,0.0,79,-99.99,,,0.00,0.000000,,2013-02-12 10:22:00,
2013-02-12 03:32:00,-7.0,-12.0,-100.00,WSW,242,0.0,0.0,79,-99.99,,,0.00,0.000000,,2013-02-12 10:32:00,
2013-02-12 03:43:00,-7.0,-12.0,-100.00,WSW,242,0.0,0.0,79,-99.99,,,0.00,0.000000,,2013-02-12 10:43:00,
2013-02-12 03:52:00,-7.0,-12.0,-100.00,WSW,242,0.0,0.0,79,-99.99,,,0.00,0.000000,,2013-02-12 10:52:00,
2013-02-12 04:01:00,-7.0,-12.0,-100.00,WSW,242,0.0,0.0,79,-99.99,,,0.00,0.000000,,2013-02-12 11:01:00,
2013-02-12 04:32:00,-6.0,-11.0,-100.00,SSE,160,0.0,0.0,79,-99.99,,,0.00,0.000000,,2013-02-12 11:32:00,
2013-02-12 04:42:00,-6.0,-11.0,-100.00,SSE,160,0.0,0.0,79,-99.99,,,0.00,0.000000,,2013-02-12 11:42:00,
2013-02-12 04:52:00,-6.0,-11.0,-100.00,SSE,160,0.0,0.0,79,-99.99,,,0.00,0.000000,,2013-02-12 11:52:00,
2013-02-12 05:01:00,-6.0,-11.0,-100.00,SSE,160,0.0,0.0,79,-99.99,,,0.00,0.000000,,2013-02-12 12:01:00,
2013-02-12 05:32:00,-7.0,-12.0,-100.00,South,184,0.0,0.0,78,-99.99,,,0.00,0.000000,,2013-02-12 12:32:00,
2013-02-12 05:42:00,-7.0,-12.0,-100.00,South,184,0.0,0.0,78,-99.99,,,0.00,0.000000,,2013-02-12 12:42:00,
2013-02-12 05:52:00,-7.0,-12.0,-100.00,South,184,0.0,0.0,78,-99.99,,,0.00,0.000000,,2013-02-12 12:52:00,
2013-02-12 06:01:00,-7.0,-12.0,-100.00,South,184,0.0,0.0,78,-99.99,,,0.00,0.000000,,2013-02-12 13:01:00,
2013-02-12 06:22:00,-6.0,-11.0,-100.00,SW,236,0.0,0.0,79,-99.99,,,0.00,0.000000,,2013-02-12 13:22:00,
2013-02-12 06:32:00,-6.0,-11.0,-100.00,SW,236,0.0,0.0,79,-99.99,,,0.00,0.000000,,2013-02-12 13:32:00,
2013-02-12 06:42:00,-6.0,-11.0,-100.00,SW,236,0.0,0.0,79,-99.99,,,0.00,0.000000,,2013-02-12 13:42:00,
2013-02-12 06:52:00,-6.0,-11.0,-100.00,SW,236,0.0,0.0,79,-99.99,,,0.00,0.000000,,2013-02-12 13:52:00,
2013-02-12 07:01:00,-6.0,-11.0,-100.00,SW,236,0.0,0.0,79,-99.99,,,0.00,0.000000,,2013-02-12 14:01:00,
2013-02-12 07:32:00,-6.0,-11.0,-100.00,WSW,248,0.0,0.0,79,-99.99,,,0.00,0.000000,,2013-02-12 14:32:00,
2013-02-12 07:42:00,-6.0,-11.0,-100.00,WSW,248,0.0,0.0,79,-99.99,,,0.00,0.000000,,2013-02-12 14:42:00,
2013-02-12 07:52:00,-6.0,-11.0,-100.00,WSW,248,0.0,0.0,79,-99.99,,,0.00,0.000000,,2013-02-12 14:52:00,
2013-02-12 08:01:00,-6.0,-11.0,-100.00,WSW,248,0.0,0.0,79,-99.99,,,0.00,0.000000,,2013-02-12 15:01:00,
2013-02-12 08:32:00,-3.0,-8.0,-100.00,South,173,0.0,0.0,79,-99.99,,,0.00,15.000000,,2013-02-12 15:32:00,
2013-02-12 08:42:00,-3.0,-8.0,-100.00,South,173,0.0,0.0,79,-99.99,,,0.00,15.000000,,2013-02-12 15:42:00,
2013-02-12 08:52:00,-3.0,-8.0,-100.00,South,173,0.0,0.0,79,-99.99,,,0.00,15.000000,,2013-02-12 15:52:00,
2013-02-12 09:01:00,-3.0,-8.0,-100.00,South,173,0.0,0.0,79,-99.99,,,0.00,15.000000,,2013-02-12 16:01:00,
2013-02-12 09:22:00,9.0,4.0,-100.00,North,5,0.0,0.0,81,-99.99,,,0.00,83.000000,,2013-02-12 16:22:00,
2013-02-12 09:32:00,9.0,4.0,-100.00,North,5,0.0,0.0,81,-99.99,,,0.00,83.000000,,2013-02-12 16:32:00,
2013-02-12 09:42:00,9.0,4.0,-100.00,North,5,0.0,0.0,81,-99.99,,,0.00,83.000000,,2013-02-12 16:42:00,
2013-02-12 09:52:00,9.0,4.0,-100.00,North,5,0.0,0.0,81,-99.99,,,0.00,83.000000,,2013-02-12 16:52:00,
2013-02-12 10:01:00,9.0,4.0,-100.00,North,5,0.0,0.0,81,-99.99,,,0.00,83.000000,,2013-02-12 17:01:00,
2013-02-12 10:32:00,23.0,17.0,-100.00,NE,46,8.0,8.0,79,-99.99,,,0.00,121.000000,,2013-02-12 17:32:00,
2013-02-12 10:42:00,23.0,17.0,-100.00,NE,46,8.0,8.0,79,-99.99,,,0.00,121.000000,,2013-02-12 17:42:00,
2013-02-12 10:52:00,23.0,17.0,-100.00,NE,46,8.0,8.0,79,-99.99,,,0.00,121.000000,,2013-02-12 17:52:00,
2013-02-12 11:01:00,23.0,17.0,-100.00,NE,46,8.0,8.0,79,-99.99,,,0.00,121.000000,,2013-02-12 18:01:00,
2013-02-12 11:32:00,27.0,15.0,-100.00,NE,34,10.0,16.0,61,0.00,,,0.00,153.000000,,2013-02-12 18:32:00,
2013-02-12 11:42:00,27.0,15.0,-100.00,NE,34,10.0,16.0,61,0.00,,,0.00,153.000000,,2013-02-12 18:42:00,
2013-02-12 11:52:00,27.0,15.0,-100.00,NE,34,10.0,16.0,61,0.00,,,0.00,153.000000,,2013-02-12 18:52:00,
2013-02-12 12:01:00,27.0,15.0,-100.00,NE,34,10.0,16.0,61,0.00,,,0.00,153.000000,,2013-02-12 19:01:00,
2013-02-12 12:32:00,30.0,15.0,-100.00,NNE,33,7.0,16.0,54,0.00,,,0.00,174.000000,,2013-02-12 19:32:00,
2013-02-12 12:42:00,30.0,15.0,-100.00,NNE,33,7.0,16.0,54,0.00,,,0.00,174.000000,,2013-02-12 19:42:00,
2013-02-12 12:52:00,30.0,15.0,-100.00,NNE,33,7.0,16.0,54,0.00,,,0.00,174.000000,,2013-02-12 19:52:00,
2013-02-12 13:01:00,30.0,15.0,-100.00,NNE,33,7.0,16.0,54,0.00,,,0.00,174.000000,,2013-02-12 20:01:00,
2013-02-12 14:32:00,41.0,13.0,-100.00,NNW,347,0.0,15.0,32,-99.99,,,0.00,98.000000,,2013-02-12 21:32:00,
2013-02-12 14:42:00,41.0,13.0,-100.00,NNW,347,0.0,15.0,32,-99.99,,,0.00,98.000000,,2013-02-12 21:42:00,
2013-02-12 14:52:00,41.0,13.0,-100.00,NNW,347,0.0,15.0,32,-99.99,,,0.00,98.000000,,2013-02-12 21:52:00,
2013-02-12 15:01:00,41.0,13.0,-100.00,NNW,347,0.0,15.0,32,-99.99,,,0.00,98.000000,,2013-02-12 22:01:00,
2013-02-12 15:22:00,38.0,13.0,-100.00,North,4,2.0,11.0,35,-99.99,,,0.00,245.000000,,2013-02-12 22:22:00,
2013-02-12 15:32:00,38.0,13.0,-100.00,North,4,2.0,11.0,35,-99.99,,,0.00,245.000000,,2013-02-12 22:32:00,
2013-02-12 15:42:00,38.0,13.0,-100.00,North,4,2.0,11.0,35,-99.99,,,0.00,245.000000,,2013-02-12 22:42:00,
2013-02-12 15:52:00,38.0,13.0,-100.00,North,4,2.0,11.0,35,-99.99,,,0.00,245.000000,,2013-02-12 22:52:00,
2013-02-12 16:01:00,38.0,13.0,-100.00,North,4,2.0,11.0,35,-99.99,,,0.00,245.000000,,2013-02-12 23:01:00,
2013-02-12 16:32:00,36.0,12.0,-100.00,NNW,347,4.0,8.0,36,0.00,,,0.00,354.000000,,2013-02-12 23:32:00,
2013-02-12 16:42:00,36.0,12.0,-100.00,NNW,347,4.0,8.0,36,0.00,,,0.00,354.000000,,2013-02-12 23:42:00,
2013-02-12 16:52:00,36.0,12.0,-100.00,NNW,347,4.0,8.0,36,0.00,,,0.00,354.000000,,2013-02-12 23:52:00,
2013-02-12 17:02:00,36.0,12.0,-100.00,NNW,347,4.0,8.0,36,0.00,,,0.00,354.000000,,2013-02-13 00:02:00,
2013-02-12 17:32:00,28.0,10.0,-100.00,North,357,2.0,6.0,47,0.00,,,0.00,234.000000,,2013-02-13 00:32:00,
2013-02-12 17:42:00,28.0,10.0,-100.00,North,357,2.0,6.0,47,0.00,,,0.00,234.000000,,2013-02-13 00:42:00,
2013-02-12 17:52:00,28.0,10.0,-100.00,North,357,2.0,6.0,47,0.00,,,0.00,234.000000,,2013-02-13 00:52:00,
2013-02-12 18:01:00,28.0,10.0,-100.00,North,357,2.0,6.0,47,0.00,,,0.00,234.000000,,2013-02-13 01:01:00,
2013-02-12 18:42:00,21.0,10.0,-100.00,ENE,68,0.0,6.0,63,0.00,,,0.00,23.000000,,2013-02-13 01:42:00,
2013-02-12 18:52:00,21.0,10.0,-100.00,ENE,68,0.0,6.0,63,0.00,,,0.00,23.000000,,2013-02-13 01:52:00,
2013-02-12 19:01:00,21.0,10.0,-100.00,ENE,68,0.0,6.0,63,0.00,,,0.00,23.000000,,2013-02-13 02:01:00,
2013-02-12 19:42:00,15.0,10.0,-100.00,South,177,0.0,3.0,80,0.00,,,0.00,0.000000,,2013-02-13 02:42:00,
2013-02-12 19:52:00,15.0,10.0,-100.00,South,177,0.0,3.0,80,0.00,,,0.00,0.000000,,2013-02-13 02:52:00,
2013-02-12 20:01:00,15.0,10.0,-100.00,South,177,0.0,3.0,80,0.00,,,0.00,0.000000,,2013-02-13 03:01:00,
2013-02-12 20:32:00,11.0,8.0,-100.00,SW,223,0.0,0.0,88,-99.99,,,0.00,0.000000,,2013-02-13 03:32:00,
2013-02-12 20:42:00,11.0,8.0,-100.00,SW,223,0.0,0.0,88,-99.99,,,0.00,0.000000,,2013-02-13 03:42:00,
2013-02-12 20:52:00,11.0,8.0,-100.00,SW,223,0.0,0.0,88,-99.99,,,0.00,0.000000,,2013-02-13 03:52:00,
2013-02-12 21:01:00,11.0,8.0,-100.00,SW,223,0.0,0.0,88,-99.99,,,0.00,0.000000,,2013-02-13 04:01:00,
2013-02-12 21:32:00,9.0,5.0,-100.00,WSW,242,0.0,0.0,85,-99.99,,,0.00,0.000000,,2013-02-13 04:32:00,
2013-02-12 21:42:00,9.0,5.0,-100.00,WSW,242,0.0,0.0,85,-99.99,,,0.00,0.000000,,2013-02-13 04:42:00,
2013-02-12 21:52:00,9.0,5.0,-100.00,WSW,242,0.0,0.0,85,-99.99,,,0.00,0.000000,,2013-02-13 04:52:00,
2013-02-12 22:01:00,9.0,5.0,-100.00,WSW,242,0.0,0.0,85,-99.99,,,0.00,0.000000,,2013-02-13 05:01:00,
2013-02-12 22:32:00,4.0,1.0,-100.00,South,177,0.0,4.0,85,-99.99,,,0.00,0.000000,,2013-02-13 05:32:00,
2013-02-12 22:42:00,4.0,1.0,-100.00,South,177,0.0,4.0,85,-99.99,,,0.00,0.000000,,2013-02-13 05:42:00,
2013-02-12 22:52:00,4.0,1.0,-100.00,South,177,0.0,4.0,85,-99.99,,,0.00,0.000000,,2013-02-13 05:52:00,
2013-02-12 23:01:00,4.0,1.0,-100.00,South,177,0.0,4.0,85,-99.99,,,0.00,0.000000,,2013-02-13 06:01:00,
2013-02-12 23:22:00,3.0,-1.0,-100.00,WSW,254,0.0,3.0,84,-99.99,,,0.00,0.000000,,2013-02-13 06:22:00,
2013-02-12 23:32:00,3.0,-1.0,-100.00,WSW,254,0.0,3.0,84,-99.99,,,0.00,0.000000,,2013-02-13 06:32:00,
2013-02-12 23:42:00,3.0,-1.0,-100.00,WSW,254,0.0,3.0,84,-99.99,,,0.00,0.000000,,2013-02-13 06:42:00,
2013-02-12 23:52:00,3.0,-1.0,-100.00,WSW,254,0.0,3.0,84,-99.99,,,0.00,0.000000,,2013-02-13 06:52:00,